www.pogodaiklimat.ru

Погода и климат >> Архив погоды >> Россия >> Ростовская область >> Семикаракорск


ПОГОДА в Семикаракорске

  • Прогноз погоды в Семикаракорске
  • Монитор погоды в Семикаракорске

АРХИВ ПОГОДЫ в Семикаракорске

Время (UTC), дата Ветер
(напр.,м/с)
 
Видим.   Явления Облачность Т
(С)
Тd
(С)
f
(%)
Тe
(С)
Тes
(С)
Комфортность P
(гПа)
Po
(гПа)
Тmin
(С)
Tmax
(С)
R
(мм)
R24
(мм)
S
(см)
09 11.06 СВ 4 10 км 3/0
[Ci]
+30.4 +11.7 32 +31 +43 жарко 1015.5 1014.0
12 11.06 СВ 4
{10}
10 км 4/0
[Ci]
+32.5 +7.8 22 +31 +39 жарко 1013.8 1012.3
15 11.06 СВ 3
{10}
10 км ясно +31.3 +9.0 25 +30 +33 жарко 1012.5 1011.0 +32.9
18 11.06 С 2 10 км ясно +23.8 +8.6 38 +24 +24 комфорт 1012.3 1010.8
21 11.06 СВ 2 10 км 8/0
[Ci fib]
+21.4 +6.7 39 +22 +22 комфорт 1012.6 1011.1
00 12.06 СВ 2 10 км ясно +21.8 +8.6 43 +23 +23 комфорт 1012.6 1011.1
03 12.06 СВ 2 10 км 10/0
[]
+19.8 +11.5 59 +22 +23 комфорт 1013.2 1011.7 +17.4
06 12.06 СВ 3 10 км 10/0
[Ac cast Ci]
+26.6 +12.0 40 +28 +32 жарко 1013.1 1011.6
09 12.06 СВ 3 10 км 8/0
[Ac cast Ci]
+30.8 +8.9 26 +30 +38 жарко 1012.4 1010.9
12 12.06 В 4 10 км 10/0
[Ac cast Ci]
+33.8 +6.1 18 +32 +36 жарко 1011.2 1009.7
15 12.06 СВ 2 10 км 4/3
[Sc Ci fib]
+31.3 +8.5 24 +30 +32 жарко 1009.8 1008.3 +34.4
18 12.06 С 2 10 км 8/3 1500 м
[Sc diur, vesp Ac As Ci fib]
+24.0 +9.4 40 +25 +25 комфорт 1010.5 1009.0
21 12.06 С 1 10 км 10/0
[Ac As Ci]
+16.6 +11.6 72 +17 +17 1010.3 1008.8
00 13.06 СВ 1 10 км 6/0
[Ac As Ci fib]
+14.7 +11.7 82 +15 +15 1010.9 1009.3
03 13.06 СВ 1 4000 м дымка 10/0
[Ac trans Ci]
+14.8 +12.8 88 +15 +16 1011.4 1009.9 +13.7
06 13.06 С 2 10 км 8/0
[Ci fib]
+28.3 +11.0 34 +29 +35 жарко 1012.5 1011.0
09 13.06 ЮВ 3 10 км 8/0
[Ci]
+33.3 +5.1 17 +31 +44 жарко 1012.4 1011.0
12 13.06 В 2 10 км 9/3 1500 м
[Cu med, cong Ac cast Cc]
+34.7 +7.3 18 +33 +38 жарко 1011.5 1010.0
15 13.06 ЮЗ 4 10 км 10/3 1500 м
[Sc diur, vesp Ac cast Cs]
+31.9 +12.4 30 +32 +33 жарко 1011.4 1009.9 +35.2
18 13.06 СВ 2
{12}
10 км 8/4 1500 м
[Sc Ac lent Ci fib]
+26.5 +10.2 36 +27 +27 жарко 1014.0 1012.5
21 13.06 СВ 4 10 км 10/0
[Ci fib]
+23.6 +12.8 51 +26 +26 жарко 1015.3 1013.8
00 14.06 СВ 3 10 км 4/0
[Ci fib]
+20.3 +11.5 57 +22 +22 комфорт 1017.0 1015.5
03 14.06 СВ 3 10 км 3/0
[Ci fib]
+18.4 +5.6 43 +19 +20 1018.9 1017.3 +18.0
06 14.06 СВ 4
{10}
10 км 10/0
[Cs]
+21.9 +5.9 35 +22 +28 комфорт 1019.9 1018.4
09 14.06 В 4 10 км ясно +25.2 +4.4 26 +25 +37 комфорт 1019.4 1017.9
12 14.06 СВ 3 10 км ясно +27.7 +1.3 18 +26 +36 жарко 1018.4 1016.9
15 14.06 В 2 10 км ясно +27.6 +1.1 18 +26 +28 жарко 1017.1 1015.6 +28.1
18 14.06 СВ 2 10 км ясно +15.8 +6.5 54 +16 +16 1017.5 1015.9
21 14.06 С 2 10 км ясно +13.8 +3.9 51 +13 +13 1016.8 1015.2
00 15.06 С 2 10 км ясно +10.2 +4.1 66 +9 +9 1016.4 1014.8
03 15.06 С 1 10 км ясно +13.9 +8.4 69 +14 +16 1015.9 1014.4 +8.0
06 15.06 СВ 2 10 км ясно +25.8 +7.3 31 +26 +37 жарко 1015.8 1014.3
09 15.06 СВ 2 10 км ясно +29.5 -1.1 14 +27 +45 жарко 1014.9 1013.4
12 15.06 СЗ 2 10 км ясно +31.5 +0.6 14 +29 +41 жарко 1013.0 1011.5
15 15.06 С 1 10 км 8/0
[Ci]
+31.9 +2.4 15 +29 +32 жарко 1011.5 1010.1 +32.6
18 15.06 ЮЗ 1 10 км 1/0
[Ac lent]
+21.6 +10.5 49 +23 +23 комфорт 1011.9 1010.3
21 15.06 С 1 10 км ясно +16.0 +11.2 73 +17 +17 1011.3 1009.8
00 16.06 С 2 10 км ясно +15.8 +10.2 69 +16 +16 1010.7 1009.2
03 16.06 штиль 0 10 км ясно +18.7 +13.6 72 +19 +21 1010.6 1009.1 +13.2
06 16.06 В 1 10 км ясно +27.3 +16.9 53 +31 +44 душно 1010.6 1009.1
09 16.06 С 1 10 км ясно +32.9 +8.3 22 +32 +53 опасность
солнечного
удара
1010.0 1008.6
12 16.06 СЗ 2 10 км 6/6 1500 м
[Cu hum]
+34.4 +9.4 22 +33 +38 жарко 1008.8 1007.3
15 16.06 Ю 2 10 км 4/3 1500 м
[Cu hum As trans]
+33.3 +8.2 21 +32 +33 жарко 1007.4 1005.9 +34.6
18 16.06 СЗ 3 10 км 8/0
[Ac As]
+26.3 +10.4 37 +27 +27 жарко 1007.7 1006.2
21 16.06 СВ 3
{13}
10 км гроза без осадков 8/4 1000 м
[Cb calv]
+20.3 +15.2 73 +23 +23 комфорт 1009.7 1008.2
00 17.06 С 4 4000 м дымка {гроза} 3/3 1000 м
[Cu hum]
+17.5 +16.2 92 +17 +17 1010.5 1008.9
03 17.06 С 3 4000 м дымка ясно +18.3 +16.3 88 +19 +20 1011.8 1010.3 +16.0
06 17.06 С 4 10 км ясно +23.5 +14.1 56 +26 +33 жарко 1012.7 1011.2
09 17.06 С 5
{10}
10 км 4/4 1500 м
[Cu hum]
+27.5 +14.2 44 +30 +36 жарко 1012.9 1011.4
12 17.06 СВ 4 10 км 4/4 1500 м
[Cu hum]
+29.2 +11.6 34 +30 +35 жарко 1012.3 1010.8
15 17.06 С 4
{10}
10 км ясно +28.2 +9.2 30 +28 +30 жарко 1012.4 1010.9 +29.6
18 17.06 С 2 10 км 1/0
[As trans]
+21.3 +10.1 49 +23 +23 комфорт 1013.0 1011.5
21 17.06 С 1 10 км ясно +16.4 +10.9 70 +17 +17 1013.8 1012.2
00 18.06 С 2 10 км ясно +14.9 +11.4 80 +15 +15 1013.5 1012.0
03 18.06 С 2 10 км ясно +18.8 +13.0 69 +20 +22 1014.1 1012.6 +12.9
06 18.06 СВ 2 10 км ясно +27.1 +11.4 38 +28 +39 жарко 1014.0 1012.5

 

Местоположение метеостанции Семикаракорск (Ростовская область, Россия): широта 47.52 долгота 40.83 высота над уровнем моря 12 м.

В архиве по умолчанию представлена погода в Семикаракорске за последнюю неделю. Архивные данные за месяц целиком и за предыдущие месяцы, начиная с января 2011 года, Вы можете получить, выбрав интересующий диапазон дат из раскрывающегося списка и нажав кнопку "Ввод!".


*Определитесь, кто Вы:
робот инопланетянин человек

Внимание! Время в таблицах - всемирное. Для получения местного времени необходимо прибавить поправку, которая равна 3 ч.

Смотрите также архив погоды в соседних городах и на ближайших метеорологических станциях:

Погода в Константиновске (Ростовская область, Россия) (21 км)
Погода в Шахтах (Ростовская область, Россия) (47 км)
Погода в Аэропорту Платов (Ростовская область, Россия) (68 км)
Погода в Белой Калитве (Ростовская область, Россия) (79 км)
Погода в Ростове-на-Дону (Ростовская область, Россия) (81 км)
Погода в Зерноград (Ростовская область, Россия) (84 км)
Погода в Каменск-Шахтинском (Ростовская область, Россия) (95 км)
Погода в Цимлянске (Ростовская область, Россия) (98 км)
Погода в Гиганте (Ростовская область, Россия) (118 км)
Погода в Морозовске (Ростовская область, Россия) (121 км)

Пояснения к столбцам:

Ветер - указаны скорость ветра в м/с - средняя за 10 мин, порывы в срок и между сроками (в фигурных скобках) и направление, откуда дует ветер: С - северный, СВ - северо-восточный, В - восточный, ЮВ - юго-восточный, Ю - южный, ЮЗ - юго-западный, З - западный, СЗ - северо-западный.
Видимость - горизонтальная дальность видимости в метрах или километрах. При видимости от 1 до 10 км при отсутствии осадков обычно наблюдается дымка, при ухудшении видимости до 1 км и менее - туман. В сухую погоду видимость может ухудшаться дымом, пылью или мглою.
Явления - указаны атмосферные явления, наблюдавшиеся в срок или в последний час перед сроком; фигурными скобками обозначены явления, наблюдавшиеся между сроками (за 1-3 часа до срока); квадратными скобками обозначены град или гололедные отложения с указанием их диаметра в мм.
Облачность - указаны через наклонную черту общая и нижняя облачность в баллах и высота нижней границы облаков в метрах; квадратными скобками обозначены формы облаков: Ci - перистые, Cs - перисто-слоистые, Cc - перисто-кучевые, Ac - высококучевые, As - высокослоистые, Sc - слоисто-кучевые, Ns - слоисто-дождевые, Cu - кучевые, Cb - кучево-дождевые. Подробнее классификацию облаков см. в Атласе облаков (PDF).
T - Температура воздуха - температура, измеренная на высоте 2 м над землей.
Td - Температура точки росы - температура, при понижении до которой содержащийся в воздухе водяной пар достигнет насыщения.
f - Относительная влажность воздуха - влажноcть воздуха, измеренная на высоте 2 м над землей.
Te - Эффективная температура - температура, которую ощущает одетый по сезону человек в тени. Характеристика душности погоды. При расчете учитывается влияние влажности воздуха и скорости ветра на теплоощущения человека.
Tes - Эффективная температура на солнце - температура, которую ощущает человек, с поправкой на солнечный нагрев. Характеристика знойности погоды. Зависит от высоты солнца над горизонтом, облачности и скорости ветра. Ночью, в пасмурную погоду, а также при ветре 12 м/с и более поправка равна нулю.
P - Атмосферное давление - приведенное к уровню моря атмосферное давление.
Po - Атмосферное давление - измеренное на уровне метеостанции атмосферное давление.
Tmin - Минимальная температура - минимум температуры воздуха на высоте 2 м над землей.
Tmax - Максимальная температура - максимум температуры воздуха на высоте 2 м над землей.
R - Количество осадков - Количество выпавших осадков за период времени, мм. При наведении курсора мыши на число - период времени, за который выпало указанное количество осадков.
R24 - Количество осадков - Количество выпавших осадков за 24 часа, мм.
S - Снежный покров - Высота снежного покрова, см. При наведении курсора мыши на число - состояние снежного покрова и степень покрытия местности в баллах.